Tracking 29777 objects as of 4-Oct-2024
HD Live streaming from Space Station
objects crossing your sky now

STARLINK-2562

Track STARLINK-2562 now!
10-day predictions
STARLINK-2562 is classified as:


NORAD ID: 48288
Int'l Code: 2021-036N
Perigee: 553.3 km
Apogee: 555.2 km
Inclination: 53.1 °
Period: 95.6 minutes
Semi major axis: 6925 km
RCS: Unknown
Launch date: April 29, 2021
Source: United States (US)
Launch site: AIR FORCE EASTERN TEST RANGE (AFETR)
Your satellite tracking list
Your tracking list is empty




NASA's NSSDC Master Catalog

Two Line Element Set (TLE):
1 48288U 21036N   24278.36616111  .00024647  00000-0  16661-2 0  9995
2 48288  53.0527 262.0083 0001359  96.8419 263.2725 15.06437499189733
Source of the keplerian elements: AFSPC